This is the latest recevied weather packets stored in our database for station/object W8CEN. If no packets are shown the sender has not sent any weather packets the latest 10 day(s).
| Time | Temp. | Humidity | Pressure | Rain* | Wind** | Luminosity | Snow |
|---|---|---|---|---|---|---|---|
| 1777917103 | 24.44° C | 42% | 983.2 hPa | 0 mm | - | 883 W/m² | - |
| 1777916801 | 25° C | 44% | 983.3 hPa | 0 mm | - | 882 W/m² | - |
| 1777916497 | 23.89° C | 46% | 983.2 hPa | 0 mm | - | 883 W/m² | - |
| 1777916195 | 23.89° C | 42% | 983.4 hPa | 0 mm | - | 886 W/m² | - |
| 1777915892 | 23.89° C | 41% | 983.4 hPa | 0 mm | - | 883 W/m² | - |
| 1777915589 | 23.33° C | 47% | 983.6 hPa | 0 mm | - | 882 W/m² | - |
| 1777915285 | 23.33° C | 45% | 983.7 hPa | 0 mm | - | 883 W/m² | - |
| 1777914982 | 23.33° C | 42% | 983.8 hPa | 0 mm | - | 882 W/m² | - |
| 1777914679 | 23.89° C | 44% | 983.6 hPa | 0 mm | - | 881 W/m² | - |
| 1777914375 | 23.33° C | 47% | 984 hPa | 0 mm | - | 880 W/m² | - |
| 1777914073 | 22.78° C | 47% | 983.9 hPa | 0 mm | - | 874 W/m² | - |
| 1777913769 | 23.33° C | 45% | 984.1 hPa | 0 mm | - | 874 W/m² | - |
| 1777913465 | 23.33° C | 45% | 983.9 hPa | 0 mm | - | 868 W/m² | - |
| 1777913162 | 23.33° C | 47% | 984 hPa | 0 mm | - | 866 W/m² | - |
| 1777912858 | 23.33° C | 45% | 984.1 hPa | 0 mm | - | 862 W/m² | - |
| 1777912554 | 22.78° C | 47% | 984.2 hPa | 0 mm | - | 855 W/m² | - |
| 1777912251 | 22.22° C | 48% | 984.5 hPa | 0 mm | - | 852 W/m² | - |
| 1777911947 | 22.22° C | 46% | 984.6 hPa | 0 mm | - | 846 W/m² | - |
| 1777911643 | 22.78° C | 47% | 984.5 hPa | 0 mm | - | 841 W/m² | - |
| 1777911339 | 22.78° C | 47% | 984.5 hPa | 0 mm | - | 833 W/m² | - |
| 1777911038 | 22.78° C | 44% | 984.7 hPa | 0 mm | - | 829 W/m² | - |
| 1777910735 | 22.78° C | 47% | 984.7 hPa | 0 mm | - | 821 W/m² | - |
| 1777910431 | 22.22° C | 49% | 984.6 hPa | 0 mm | - | 813 W/m² | - |
| 1777910128 | 21.67° C | 49% | 984.9 hPa | 0 mm | - | 804 W/m² | - |
| 1777909826 | 21.11° C | 51% | 984.8 hPa | 0 mm | - | 795 W/m² | - |
* Rain latest hour (hover to see other rain measurements)
** Current wind speed in m/s (hover to see current wind gust speed)